Weather History for PAFA - December, 2011

Change the Weather History Date:

Saturday, December 24, 2011

  Actual Average Record
Temperature  
Mean Temperature -19 °F -5 °F  
Max Temperature -11 °F 4 °F 42 °F (1985)
Min Temperature -27 °F -14 °F -54 °F (1961)
Degree Days  
Heating Degree Days 84 70  
Month to date heating degree days 1289 1644  
Since 1 July heating degree days 5404 5775  
Cooling Degree Days 0 0  
Month to date cooling degree days 0 0  
Year to date cooling degree days 39 61  
Moisture  
Dew Point -27 °F    
Average Humidity 79    
Maximum Humidity 91    
Minimum Humidity 74    
Precipitation  
Precipitation T in 0.02 in 0.28 in (1962)
Month to date precipitation 0.69 0.48  
Year to date precipitation 9.28 10.65  
Snow  
Snow T in 0.40 in 5.20 in (1990)
Month to date snowfall 9.5 9.2  
Since 1 July snowfall 22.9 35.0  
Snow Depth 12.00 in    
Sea Level Pressure  
Sea Level Pressure 29.75 in    
Wind  
Wind Speed 1 mph (NW)    
Max Wind Speed 5 mph    
Max Gust Speed -    
Visibility 9 miles    
Events Fog    
T = Trace of Precipitation, MM = Missing Value Source: NWS Daily Summary

Daily Weather History Graph

Daily Weather History Graph

Search for Another Location

Airport or City:

Trip Planner

Search our weather history database for the weather conditions in past years. The results will help you decide how hot, cold, wet, or windy it might be!

Date:

Astronomy

Dec. 24, 2011 Rise Set
Actual Time 10:59 AM AKST 2:43 PM AKST
Civil Twilight 9:34 AM AKST 4:08 PM AKST
Nautical Twilight 8:22 AM AKST 5:19 PM AKST
Astronomical Twilight 7:20 AM AKST 6:21 PM AKST
Moon 10:48 AM AKST (12/24) 3:17 PM AKST (12/24)
Length of Visible Light 6h 34m
Length of Day
3h 44m
New Moon, 0% of the Moon is Illuminated
Dec 24
New Moon
Dec 31
First Quarter
Jan 8
Full
Jan 16
Last Quarter
Jan 22
New

Hourly Weather History & Observations

Time (AKST) Temp. Windchill Dew Point Humidity Pressure Visibility Wind Dir Wind Speed Gust Speed Precip Events Conditions
12:53 AM -14.1 °F - -16.1 °F 91% 29.77 in 10.0 mi Calm Calm - 0.00 in   Partly Cloudy
1:53 AM -18.0 °F -28.5 °F -20.9 °F 87% 29.80 in 10.0 mi NE 3.5 mph - N/A   Clear
3:53 AM -18.0 °F - -22.0 °F 82% 29.80 in 10.0 mi Calm Calm - N/A   Clear
4:53 AM -18.9 °F - -23.1 °F 81% 29.79 in 10.0 mi Calm Calm - N/A   Clear
5:53 AM -18.9 °F - -24.0 °F 78% 29.80 in 10.0 mi Calm Calm - N/A   Clear
6:53 AM -22.0 °F - -27.0 °F 77% 29.81 in 10.0 mi Calm Calm - N/A   Partly Cloudy
7:53 AM -22.0 °F - -27.0 °F 77% 29.80 in 10.0 mi Calm Calm - N/A   Partly Cloudy
8:53 AM -22.0 °F - -26.0 °F 82% 29.81 in 10.0 mi Calm Calm - N/A   Partly Cloudy
9:53 AM -23.1 °F - -29.0 °F 74% 29.81 in 7.0 mi Calm Calm - N/A   Partly Cloudy
10:53 AM -24.0 °F - -29.9 °F 74% 29.81 in 7.0 mi Calm Calm - N/A Fog Patches of Fog
11:53 AM -25.1 °F - -29.9 °F 78% 29.81 in 7.0 mi Calm Calm - N/A Fog Patches of Fog
12:53 PM -22.0 °F - -27.0 °F 77% 29.79 in 4.0 mi Calm Calm - N/A   Partly Cloudy
1:53 PM -22.0 °F -33.0 °F -27.0 °F 77% 29.78 in 7.0 mi NW 3.5 mph - N/A   Partly Cloudy
2:53 PM -20.9 °F - -26.0 °F 77% 29.77 in 7.0 mi Calm Calm - N/A   Scattered Clouds
3:53 PM -23.1 °F - -29.0 °F 74% 29.74 in 7.0 mi Calm Calm - N/A   Scattered Clouds
4:53 PM -25.1 °F - -29.9 °F 78% 29.73 in 10.0 mi Calm Calm - N/A   Scattered Clouds
5:53 PM -24.0 °F - -29.0 °F 77% 29.70 in 10.0 mi Calm Calm - N/A   Scattered Clouds
6:53 PM -26.0 °F -40.2 °F -31.0 °F 77% 29.68 in 10.0 mi South 4.6 mph - N/A   Partly Cloudy
7:53 PM -25.1 °F - -29.9 °F 78% 29.68 in 10.0 mi Calm Calm - N/A   Partly Cloudy
8:53 PM -24.0 °F - -29.0 °F 77% 29.66 in 10.0 mi Calm Calm - N/A   Scattered Clouds
9:53 PM -24.0 °F - -27.9 °F 82% 29.64 in 10.0 mi Calm Calm - N/A   Scattered Clouds
10:53 PM -22.0 °F - -27.9 °F 74% 29.60 in 10.0 mi Calm Calm - N/A   Mostly Cloudy
11:53 PM -22.0 °F - -27.0 °F 77% 29.60 in 10.0 mi Calm Calm - N/A   Mostly Cloudy